Wind_Speed
14 15 17 20 19 19 19 20 21 24 23 19 17 19 20 20 20 21 22 20 25 24 22 22 23 22 20 21 19 15 18 18 18 19 20 20 22 24 25 27 26 24 22 21 22 21 18 17 16 16 13 9 10 14 16 17 18 19 19 19 17 14 12 11 10 10 11 15 16 16 15 14 13 13 12 12 12 11 11 11 10 11 11 11 11 10
15 18 19 19 18 17 18 18 20 23 22 20 20 22 19 21 21 19 20 19 22 20 19 20 22 21 20 20 20 20 21 22 22 21 21 21 21 22 24 27 25 22 22 22 23 21 17 15 16 15 13 11 12 14 16 18 17 18 18 19 18 16 16 15 15 14 13 15 16 15 14 12 12 11 11 11 11 11 11 10 11 12 12 12 12 12
17 21 19 17 17 16 17 16 19 21 20 19 18 21 17 17 19 18 19 20 18 16 16 17 20 21 20 21 21 21 22 22 22 23 22 22 23 22 24 27 23 21 23 24 24 18 13 15 17 15 13 13 15 15 16 17 17 18 19 19 20 19 18 18 17 14 13 14 13 13 12 11 10 9 9 9 9 10 10 11 11 11 12 13 13 12
17 20 19 17 18 17 16 14 13 15 16 17 16 17 15 12 17 15 14 15 13 12 14 14 16 19 20 22 22 22 23 20 20 22 20 22 24 22 25 28 23 22 25 25 21 14 14 18 18 15 14 15 16 16 16 17 18 19 19 20 21 21 20 19 18 15 13 13 11 10 10 10 9 8 7 6 7 8 9 10 10 11 11 11 12 12
17 15 14 16 18 18 16 13 11 11 13 17 18 18 15 13 15 13 11 13 10 10 12 13 15 19 21 21 20 22 24 21 20 20 19 20 22 22 27 27 23 26 27 23 18 15 17 20 19 16 16 16 15 16 18 20 20 19 18 19 20 21 22 21 19 17 16 13 11 10 10 9 8 6 5 4 5 6 7 8 9 10 9 10 11 11
19 13 11 15 18 17 15 15 16 15 14 17 21 22 21 18 16 14 11 12 10 10 12 13 14 16 19 21 19 21 23 22 21 18 19 20 19 23 27 24 24 27 24 19 17 17 18 19 21 20 18 17 16 17 19 20 18 18 19 20 21 23 22 20 19 18 17 14 12 11 11 9 7 5 3 2 3 5 6 7 9 9 8 9 10 10
19 14 11 13 14 12 14 17 17 18 18 18 19 20 24 25 21 17 12 11 11 12 12 14 15 12 16 22 23 23 22 22 23 19 20 20 19 25 28 25 26 25 22 20 18 18 17 19 24 23 20 19 19 20 20 19 15 16 22 24 23 24 23 21 21 20 18 18 18 15 11 9 6 4 2 0 2 4 6 8 9 9 8 8 9 10
17 15 13 14 14 12 15 17 16 18 19 19 17 16 20 24 22 19 14 12 13 14 12 14 17 14 16 21 24 25 23 22 23 21 21 20 19 26 27 25 27 24 21 22 19 18 18 21 25 22 21 20 20 21 20 18 16 18 22 24 23 23 22 22 23 23 23 23 21 16 11 8 6 4 3 1 2 4 6 8 8 9 9 8 8 9
15 15 14 14 16 17 17 17 16 17 19 20 17 15 17 20 21 18 15 14 13 12 12 14 16 13 14 17 18 22 25 24 22 21 22 21 21 25 26 24 26 24 21 20 19 19 21 24 19 14 18 20 19 21 20 18 17 18 20 21 22 24 24 24 24 25 26 23 17 14 12 9 7 5 4 3 3 5 6 7 8 9 9 9 8 8
12 15 16 14 16 17 17 16 17 18 19 19 17 15 13 15 19 18 15 16 14 10 11 13 14 11 12 15 15 18 24 24 22 21 21 21 23 27 28 24 21 20 19 18 21 23 25 23 12 4 10 17 19 22 22 20 18 17 17 16 18 24 26 24 23 25 25 20 13 12 13 10 8 7 6 5 5 5 6 7 8 10 11 10 8 7
10 10 14 16 17 17 15 14 17 19 18 16 15 14 12 13 18 18 18 17 12 9 12 16 16 13 11 13 16 18 20 21 20 21 21 21 24 27 26 22 20 19 17 17 22 24 21 14 7 6 6 12 16 21 22 21 18 16 14 10 11 17 21 22 23 23 22 19 13 11 12 11 10 9 8 7 7 7 7 8 9 10 12 11 8 6
16 11 11 14 17 17 14 13 14 16 16 14 13 12 13 13 14 16 18 15 8 6 13 17 18 16 13 11 13 15 17 17 17 17 18 20 24 26 25 23 21 19 16 19 23 21 14 9 8 10 4 6 9 15 19 20 19 17 12 8 9 11 14 18 21 21 20 19 15 11 13 13 11 11 10 9 8 8 8 9 10 11 12 11 8 5
20 17 14 13 16 18 14 12 13 14 15 16 14 14 12 9 10 10 10 10 8 9 14 16 15 15 12 10 11 12 12 13 15 17 17 16 17 21 24 24 21 18 17 21 24 18 14 13 11 10 3 4 6 9 12 15 18 17 11 9 9 9 11 15 19 19 18 19 18 14 14 14 14 14 13 11 10 9 9 10 11 12 12 10 7 4
18 18 17 15 17 19 16 15 15 15 17 18 16 16 12 6 6 6 6 7 8 11 14 13 11 9 6 5 8 13 13 11 10 14 18 16 15 18 21 21 19 19 20 22 23 20 19 16 11 9 6 7 7 7 8 11 14 15 13 12 11 11 12 14 16 16 14 15 16 15 14 16 17 17 15 13 11 10 10 11 11 11 12 9 5 3
15 15 18 19 17 19 20 19 16 12 16 19 18 16 14 10 7 6 5 5 4 7 11 10 7 6 4 8 10 14 16 15 14 15 17 19 20 20 20 20 18 20 22 22 21 21 22 17 9 7 10 12 12 11 11 14 16 18 18 17 15 15 15 14 15 15 13 14 14 14 15 16 19 19 17 14 12 11 10 10 10 11 12 9 4 4
16 14 16 19 17 18 21 21 18 14 13 16 18 18 16 14 12 7 4 4 4 4 6 7 5 3 5 9 14 17 18 18 15 15 16 17 20 21 19 19 20 21 22 20 18 19 22 19 13 11 12 15 17 17 16 18 21 21 20 20 19 17 16 16 17 17 16 15 14 14 15 17 20 20 18 15 12 12 11 10 11 12 12 9 6 6
15 14 13 18 18 18 19 18 18 17 11 8 15 19 16 14 14 9 6 7 5 4 5 8 5 4 4 7 14 18 19 17 11 10 13 15 17 16 14 17 20 20 20 20 20 20 22 21 18 16 14 14 17 19 21 21 21 21 21 22 22 19 18 18 18 19 18 17 15 14 17 20 20 19 17 15 14 12 11 11 11 12 11 9 8 6
12 12 9 14 17 18 17 15 17 18 13 9 12 15 12 12 15 13 6 3 4 6 6 10 10 10 8 8 13 14 16 15 10 8 12 16 18 19 17 19 19 17 19 19 18 18 17 17 17 18 16 16 18 20 22 22 20 21 23 24 24 22 21 21 21 21 19 17 15 15 18 20 19 18 17 15 14 12 11 11 11 11 10 9 7 5
10 12 12 13 16 18 18 15 17 19 18 15 11 10 8 7 9 11 6 2 4 5 5 10 15 13 7 7 14 13 13 15 14 14 14 14 18 20 21 23 20 18 19 17 14 13 11 11 11 11 12 15 19 20 21 21 20 21 23 24 24 23 22 23 23 22 20 18 17 17 19 19 18 17 16 14 12 11 11 11 10 10 9 9 6 3
9 9 11 11 12 14 18 18 17 17 19 18 13 11 11 8 7 8 7 7 7 4 3 9 10 4 5 3 11 14 18 19 17 18 16 12 14 16 19 23 20 17 18 15 12 9 8 7 7 6 6 9 15 19 21 21 20 21 21 21 21 21 21 23 23 22 21 20 19 19 19 19 17 16 14 11 10 10 10 10 10 10 8 7 5 2
13 10 10 9 9 11 16 20 18 15 16 17 16 15 13 12 11 10 10 11 9 5 3 5 3 6 8 3 10 14 17 17 15 16 16 14 14 15 18 19 15 14 14 13 12 10 8 7 6 5 5 8 13 16 18 20 22 23 21 18 18 18 19 21 21 21 22 21 21 20 19 18 16 15 13 10 9 8 8 9 9 8 7 6 5 2
16 15 13 11 12 14 14 14 15 16 17 17 17 17 16 14 12 8 8 10 10 8 4 2 1 5 6 5 10 15 16 12 10 12 12 12 16 20 19 15 13 11 9 8 9 10 9 8 6 6 7 9 11 14 17 19 21 20 18 16 16 17 19 19 19 19 20 21 21 20 19 18 16 14 12 9 8 8 7 8 8 7 7 7 6 4
13 12 12 15 16 17 14 9 8 12 17 20 19 16 17 18 15 10 7 9 13 11 6 5 2 4 4 6 12 19 19 14 10 8 9 9 11 17 18 15 15 14 10 8 8 10 10 10 9 6 6 10 14 16 18 18 16 14 15 16 16 17 18 19 19 19 19 20 20 19 18 16 14 13 10 8 8 8 7 8 8 7 8 8 7 6
14 10 9 13 14 17 17 13 11 11 12 16 18 15 15 16 16 17 14 11 11 8 6 7 3 5 8 9 12 17 15 12 10 8 9 10 9 10 11 11 14 14 11 9 9 7 7 10 11 9 9 15 19 17 15 15 14 15 15 16 17 18 19 20 21 21 19 19 19 18 17 15 14 12 9 8 8 8 8 8 7 7 8 9 8 7
15 12 11 10 7 11 14 11 13 13 11 11 14 15 15 13 12 14 14 12 9 7 8 6 1 5 9 9 10 14 14 11 10 9 9 12 11 9 10 10 9 11 12 11 10 9 9 11 13 13 13 17 17 15 14 16 17 17 18 18 19 21 21 21 21 21 21 20 18 17 16 15 13 12 11 10 10 9 8 8 8 8 8 7 8 8
11 11 12 11 6 6 7 5 7 8 9 13 14 13 15 17 15 11 9 9 9 9 9 6 3 6 8 8 8 13 18 16 12 10 11 13 14 12 11 11 8 10 13 12 11 11 11 11 13 14 15 15 13 13 15 16 17 19 20 19 19 19 17 15 16 17 20 21 19 16 14 13 12 13 13 12 11 11 10 8 7 7 7 6 7 8
9 10 12 13 10 6 5 4 4 2 7 13 16 15 14 15 16 15 11 8 7 7 7 5 5 10 10 11 11 13 19 18 14 14 14 14 14 13 12 11 10 12 13 12 12 12 10 9 10 13 16 16 14 14 15 17 18 20 20 18 17 17 14 12 13 14 14 15 16 16 15 15 14 14 13 11 10 10 9 6 6 6 6 6 7 8
9 11 12 13 13 10 7 7 8 5 3 12 17 16 15 13 11 14 15 12 9 8 6 4 8 14 14 13 11 11 15 14 12 15 16 15 15 15 14 12 12 14 14 13 14 12 11 9 7 9 13 13 13 14 16 17 17 19 22 21 19 19 17 14 13 11 9 9 10 11 14 14 13 12 10 8 7 8 8 7 7 8 8 8 9 8
9 11 12 12 14 14 11 10 11 11 11 8 11 14 14 14 11 9 10 13 12 8 6 9 15 18 15 13 12 12 15 14 12 14 16 16 16 15 15 14 14 15 16 16 16 15 14 12 9 8 8 8 9 8 9 10 11 14 18 19 18 17 16 14 12 9 7 8 8 9 10 9 9 9 7 7 8 8 8 8 9 9 9 10 11 10
9 9 10 10 10 13 12 11 11 12 16 17 10 7 11 12 11 9 5 4 6 6 10 17 19 18 14 13 14 15 17 16 14 15 15 14 14 15 16 16 16 16 17 17 17 17 15 15 13 11 9 9 8 7 6 6 7 9 10 11 11 11 11 11 10 9 9 10 10 11 11 9 9 8 6 7 8 8 8 8 9 10 10 12 13 12
11 8 9 9 8 9 9 8 8 8 10 14 16 10 5 9 9 8 4 3 6 12 19 23 22 19 15 14 15 17 18 17 17 18 17 14 14 17 17 18 19 19 20 19 19 18 17 17 16 16 14 11 8 7 7 6 7 9 9 9 10 10 10 10 9 10 11 11 11 12 11 9 7 6 6 6 7 7 8 9 10 11 12 13 13 13
10 8 9 10 8 7 8 7 5 5 5 10 15 17 13 4 6 7 4 2 5 16 24 24 22 20 18 19 19 18 18 18 18 19 18 18 18 17 15 18 20 22 22 22 22 22 22 22 21 20 19 17 14 13 13 10 10 12 11 11 12 11 11 12 10 9 10 11 10 9 9 8 7 7 7 7 8 9 10 11 12 13 13 13 13 13
6 7 9 10 9 7 7 7 5 4 3 5 9 13 17 14 4 5 4 1 5 12 19 18 17 18 20 22 22 21 21 21 20 21 21 20 21 21 20 21 23 24 24 24 24 24 24 24 25 24 24 23 21 20 19 18 18 17 14 14 14 12 11 11 10 9 10 10 9 8 9 10 10 10 11 11 11 11 12 12 13 14 14 14 13 14
7 9 9 8 8 6 5 6 6 5 4 2 2 5 9 13 9 5 5 6 5 7 12 12 13 15 17 20 20 21 23 22 21 22 22 22 21 21 23 24 24 25 25 25 25 25 25 26 27 27 28 28 27 26 25 23 22 21 19 18 17 15 13 11 9 8 9 10 9 10 11 12 12 13 13 13 14 14 14 15 16 16 16 16 16 16
7 10 9 6 5 3 4 6 4 4 4 5 4 3 5 11 13 10 9 8 6 4 5 8 8 7 8 12 15 17 19 19 18 18 19 18 17 16 18 20 21 21 21 21 21 22 24 25 26 27 27 28 28 28 27 26 26 24 22 20 17 12 10 10 11 11 10 10 11 11 12 14 15 15 15 15 16 16 17 19 20 20 19 20 21 20
4 8 8 6 4 1 5 7 4 2 5 5 5 6 6 9 11 11 12 10 6 6 6 6 4 4 4 4 6 10 14 15 14 15 16 16 16 15 16 18 18 18 17 17 17 17 19 21 22 21 20 21 22 23 23 24 26 26 25 25 22 16 12 13 16 16 15 14 13 13 13 16 17 18 18 19 18 19 20 21 22 23 23 23 22 21
4 6 7 6 5 4 4 6 5 3 3 3 4 6 7 7 7 8 9 10 12 13 12 10 7 3 0 3 5 6 7 9 11 14 17 19 20 20 19 18 17 17 17 17 15 13 14 16 16 14 14 14 15 15 15 15 16 16 17 21 24 23 22 22 21 19 17 16 14 14 15 18 20 21 21 21 21 21 22 23 23 23 23 23 23 23
5 5 5 5 5 5 5 4 3 2 1 4 5 8 10 10 10 10 9 8 10 14 14 13 13 11 9 7 5 4 5 7 9 12 14 16 18 18 18 16 14 14 15 14 13 11 11 12 11 10 11 12 11 10 11 11 12 11 11 13 16 17 19 20 17 14 13 14 14 16 18 19 21 22 22 21 20 21 22 23 23 23 24 25 26 27
5 4 3 4 5 6 4 3 2 1 2 4 4 8 13 15 14 10 7 8 8 8 8 8 11 11 10 9 9 10 10 11 12 12 12 13 14 15 15 14 13 12 12 12 12 12 12 13 13 13 14 15 14 13 13 14 16 16 16 16 16 16 16 16 15 15 15 16 17 18 19 21 22 22 21 20 21 22 23 24 25 25 27 29 30 30
3 4 5 6 7 7 6 5 3 3 6 6 6 7 11 15 15 9 4 8 10 3 3 1 3 6 8 8 8 8 7 9 12 13 13 13 13 14 13 13 12 11 11 12 12 13 14 15 15 15 16 16 17 16 16 16 17 17 18 18 19 20 20 20 21 21 21 21 20 21 22 23 24 24 24 24 24 26 27 28 28 29 30 32 32 31
3 5 6 7 7 8 8 5 2 4 7 7 2 2 7 11 11 7 6 13 14 6 4 7 7 9 11 10 8 8 7 8 9 10 11 12 10 9 9 10 10 10 10 11 11 12 12 12 12 12 13 13 13 14 14 14 15 16 17 16 17 19 19 19 20 21 21 22 22 24 26 27 28 29 29 29 29 30 31 31 32 32 32 32 32 31
6 6 6 5 4 5 5 3 5 4 4 4 4 4 9 10 7 8 12 15 13 12 11 11 11 14 16 14 13 12 11 11 9 9 9 8 7 7 7 8 8 9 9 9 10 10 10 10 10 10 11 12 12 14 14 15 16 17 17 17 18 19 19 19 20 21 23 24 26 28 29 30 32 34 34 34 33 33 33 33 33 33 32 33 33 32
5 6 7 8 6 5 3 2 5 3 1 4 5 5 9 12 12 12 15 15 13 14 15 13 13 14 14 15 15 14 13 11 10 11 10 7 5 5 6 8 9 10 10 10 10 11 12 13 13 14 15 16 16 17 18 19 20 20 20 21 22 23 23 24 25 26 28 29 31 32 33 34 35 36 37 37 36 35 35 35 34 35 34 34 35 34
5 4 4 6 5 4 4 5 5 4 2 3 4 5 9 14 16 17 17 17 14 13 15 16 15 13 13 15 16 15 15 14 13 12 11 9 8 7 8 9 10 10 11 12 12 13 15 16 16 18 19 19 20 21 21 22 23 24 25 26 27 28 28 30 31 33 34 35 35 35 36 37 38 39 40 40 40 40 40 39 39 39 38 38 37 36
5 4 3 4 4 4 5 6 6 4 3 5 6 7 9 13 15 15 15 15 14 13 14 16 15 13 12 15 17 17 17 16 14 12 11 11 12 12 13 13 13 14 15 15 15 16 18 19 19 20 21 21 22 23 24 25 26 27 29 30 31 32 32 34 35 36 37 37 38 38 38 38 39 40 41 42 43 43 43 43 43 43 43 42 41 40
5 5 5 3 3 6 6 5 6 5 4 6 7 6 8 11 13 12 13 14 15 15 15 13 13 12 11 11 11 12 14 14 13 13 13 13 14 16 17 17 18 19 19 19 18 18 20 21 21 22 22 22 24 25 25 26 27 28 30 31 32 33 34 35 36 37 38 39 39 39 40 40 41 42 43 44 45 45 46 46 46 46 46 45 44 43
4 5 5 2 2 4 4 5 4 4 4 5 7 7 9 12 12 11 12 13 14 13 11 9 9 10 10 9 7 7 9 11 12 13 14 15 16 17 18 19 20 21 21 21 20 19 21 22 22 22 22 23 24 24 25 25 26 28 29 31 32 33 34 35 36 37 37 38 39 39 40 40 41 42 42 43 43 44 45 45 45 45 45 45 44 43
5 6 5 2 0 3 5 5 2 0 0 2 4 6 9 11 12 11 12 13 13 13 12 11 9 8 8 9 8 8 9 11 12 14 16 17 17 17 18 19 20 21 22 23 22 22 22 23 22 22 23 24 24 24 24 25 25 26 27 29 30 32 33 33 34 35 35 36 37 37 38 39 40 40 40 40 40 40 41 41 42 42 42 41 41 40
5 6 4 2 1 4 5 4 3 4 4 3 1 2 4 7 8 10 13 14 15 14 13 12 10 8 8 9 10 11 13 13 14 15 17 18 18 18 18 19 20 22 23 23 23 23 21 21 21 21 22 22 22 22 23 23 24 24 25 26 28 29 30 30 30 31 31 31 32 32 33 33 34 35 36 36 36 37 38 38 39 40 41 40 41 41
1 3 3 2 1 2 3 5 5 3 3 4 1 2 0 4 5 7 10 11 12 12 11 10 9 10 11 11 12 14 15 15 15 15 18 19 19 19 19 19 19 20 21 20 20 19 18 17 17 18 19 19 20 20 21 21 21 22 23 24 26 27 27 27 27 27 26 26 26 25 25 25 26 27 28 29 29 31 32 33 35 37 38 39 41 43
1 3 4 3 3 3 5 7 4 1 4 6 5 2 2 4 4 2 4 5 7 8 8 9 10 11 12 13 14 15 17 17 17 17 18 19 19 19 18 17 16 16 16 16 16 16 15 15 15 16 16 17 17 18 18 19 19 19 20 21 23 24 24 24 24 24 23 22 22 21 20 21 21 21 22 23 24 26 28 30 31 32 33 35 36 38
Wind_Direction
203 212 218 219 223 221 224 227 231 235 238 253 274 264 235 231 238 229 238 220 186 195 210 214 221 222 231 231 224 208 196 209 216 218 218 217 230 242 247 248 247 251 250 249 247 238 227 225 234 244 244 231 217 222 219 213 214 215 205 196 203 206 195 190 180 161 139 130 129 125 118 112 105 95 85 74 64 58 51 45 40 36 34 32 30 29
204 218 224 222 226 228 228 230 237 243 249 260 277 281 249 223 236 230 230 219 184 192 211 210 220 223 223 226 223 211 203 212 219 220 220 220 224 232 245 249 247 247 243 242 242 233 219 221 237 242 238 232 219 220 222 214 213 216 204 191 192 192 187 185 175 165 150 136 130 123 116 111 106 96 84 71 61 55 47 41 36 32 31 27 27 25
211 225 230 227 229 232 233 231 239 244 250 260 264 275 265 224 227 231 226 221 191 190 213 207 212 225 227 225 226 220 208 207 213 217 220 225 225 226 237 243 245 246 241 238 238 233 221 225 238 238 230 224 215 214 220 215 210 209 198 182 181 184 182 178 171 165 154 143 137 130 124 120 113 101 86 72 62 55 46 41 35 29 28 24 22 22
215 229 230 229 228 227 232 231 237 239 239 251 250 253 267 241 226 227 208 202 187 184 212 219 221 229 231 229 226 225 223 213 208 214 220 227 228 225 234 241 246 247 239 234 235 235 231 231 234 231 223 218 212 209 211 210 204 197 186 172 174 180 178 175 170 167 163 158 158 151 139 129 117 103 89 72 60 54 45 40 33 27 26 23 21 19
225 234 227 225 227 223 226 229 232 240 238 243 243 239 252 252 233 222 181 178 186 184 198 224 243 239 233 230 221 222 230 221 208 215 222 228 229 228 236 240 242 239 233 231 232 231 229 232 235 224 216 215 210 207 205 201 194 184 175 172 176 180 180 175 172 173 171 169 173 165 142 129 123 113 97 70 50 44 40 37 31 23 21 22 21 18
234 240 236 225 219 213 219 229 228 236 244 242 240 237 244 256 253 235 202 189 210 215 205 216 238 242 233 230 225 224 226 217 212 219 223 226 223 226 234 232 231 236 238 238 235 227 225 232 235 222 211 213 207 204 205 200 192 178 174 179 181 184 186 180 174 177 178 176 181 173 149 139 140 132 116 60 32 28 25 27 26 19 15 17 19 15
237 239 239 222 206 202 218 231 229 228 237 241 238 234 240 252 262 258 230 193 207 228 224 218 228 240 230 226 227 226 220 214 218 223 224 223 220 228 233 229 231 238 244 248 239 226 225 233 235 221 205 207 204 200 204 205 197 178 178 185 189 192 190 181 175 180 189 191 192 183 160 155 159 154 168 343 7 10 11 13 16 14 12 14 13 12
236 230 221 219 215 217 226 231 228 221 227 237 233 225 232 241 251 260 249 218 220 234 228 215 224 242 238 227 223 220 218 216 216 217 218 217 219 229 228 225 235 240 241 246 236 223 229 238 240 224 198 201 206 200 199 202 196 181 183 190 194 195 188 184 185 188 194 194 191 183 166 168 183 189 211 257 332 348 360 3 6 9 11 12 10 9
230 222 208 215 223 229 233 232 228 220 226 234 235 236 234 230 234 244 246 235 230 235 234 220 218 235 247 238 223 215 219 217 212 215 219 216 221 230 229 227 235 236 236 237 221 215 228 226 227 219 193 192 200 199 195 196 194 189 191 194 197 196 191 193 194 191 189 186 187 187 177 180 200 211 230 261 302 330 349 354 357 1 6 10 8 9
223 223 217 217 220 229 233 230 225 220 228 234 240 254 244 224 227 232 236 236 231 230 238 230 221 232 248 235 214 210 218 215 211 219 222 218 222 232 238 237 231 229 231 225 211 216 228 218 204 208 180 169 178 191 193 193 193 190 192 199 208 208 204 200 194 190 188 184 188 192 183 187 211 226 244 262 284 310 330 339 344 350 357 2 3 5
226 228 227 223 224 229 228 229 229 222 226 231 234 248 243 226 225 225 229 236 237 235 236 233 223 228 249 233 213 215 220 212 211 221 220 215 219 225 234 235 230 234 229 216 215 222 231 228 228 246 177 143 167 187 192 193 191 189 193 206 213 204 198 193 192 197 197 194 197 196 188 198 219 234 247 258 273 294 309 321 332 343 350 354 355 359
230 228 227 227 227 227 227 238 232 217 219 222 220 232 236 227 221 222 227 229 234 236 236 237 226 223 240 236 216 213 211 207 211 217 208 204 212 218 225 228 231 236 223 213 221 224 230 241 245 242 207 124 163 182 191 196 191 189 196 210 210 193 186 188 195 205 207 209 215 206 198 208 227 240 248 257 268 284 298 311 325 336 342 344 346 352
229 231 230 230 229 225 228 235 222 209 217 219 216 224 231 223 215 221 224 220 226 231 231 236 233 228 231 229 214 193 189 205 215 213 200 197 215 222 224 229 234 236 219 213 221 225 232 238 239 248 234 126 149 170 190 199 194 198 210 215 208 198 195 197 201 209 217 225 228 219 212 216 228 242 249 254 263 276 291 305 321 333 338 340 341 348
222 228 229 225 225 222 220 222 213 204 214 221 220 220 222 220 217 223 220 219 228 230 227 229 239 241 215 184 191 185 193 204 192 200 207 211 225 227 225 231 238 237 220 210 220 229 236 241 248 253 225 176 173 175 188 197 200 213 225 220 210 198 199 205 208 215 226 229 228 230 232 226 227 239 248 249 259 272 285 303 318 332 339 340 338 336
219 223 222 216 216 214 212 220 222 209 209 217 221 225 227 220 217 226 229 233 242 236 228 217 224 237 177 138 153 171 191 192 164 168 193 206 216 221 225 228 230 235 226 214 220 227 225 230 232 213 196 187 187 178 175 186 199 212 218 215 208 198 198 206 211 220 232 232 231 238 241 233 228 235 242 244 254 267 280 300 313 328 339 340 325 316
228 231 220 211 212 210 211 222 231 234 225 213 214 226 230 220 217 227 246 266 308 304 251 222 213 196 149 158 175 178 182 192 197 199 202 213 222 223 227 226 224 232 230 223 226 216 206 210 212 195 178 175 181 183 186 195 202 207 210 211 207 202 202 209 214 222 232 236 239 241 236 227 223 229 237 242 250 263 276 295 308 321 333 333 313 310
233 242 221 205 209 210 214 222 224 233 244 218 213 223 225 221 216 216 239 245 256 291 242 210 192 131 130 168 187 193 192 196 212 221 217 217 206 200 211 224 228 229 226 227 229 215 197 196 206 204 188 179 185 190 193 199 202 199 201 209 212 210 210 212 216 224 232 237 240 239 228 220 220 225 232 238 247 260 274 289 306 319 325 326 316 312
241 259 239 208 213 211 212 222 220 224 235 226 223 228 230 229 217 209 225 226 231 263 227 192 182 184 205 192 179 203 217 208 193 184 204 207 189 180 193 211 220 227 231 228 222 219 206 193 199 203 195 194 197 196 193 195 197 197 201 209 215 217 215 215 220 228 232 236 235 229 221 217 220 225 229 235 244 257 272 285 304 314 315 320 317 314
238 257 256 232 226 212 204 220 226 222 225 228 236 243 243 249 226 214 221 197 206 245 239 215 203 195 211 190 172 188 203 198 202 202 197 196 196 198 207 216 223 230 236 226 207 219 219 194 196 202 190 191 199 204 204 195 191 195 200 205 210 214 216 218 224 228 228 229 227 218 214 218 222 224 226 233 243 258 272 285 299 302 303 310 307 309
224 242 253 242 231 210 201 216 228 224 223 231 242 245 238 239 241 244 252 241 229 222 229 234 217 152 53 132 169 176 183 188 204 212 206 199 200 205 212 219 220 217 215 201 182 200 221 210 216 218 197 188 196 207 211 201 193 196 198 202 206 208 213 217 219 221 220 220 217 211 212 217 220 222 225 233 246 262 273 284 292 289 289 294 283 277
216 226 245 247 240 234 218 212 219 227 226 227 230 235 235 224 218 231 244 244 248 253 238 236 221 63 54 119 172 177 186 191 194 196 199 202 195 190 198 202 195 184 183 175 174 188 206 213 210 190 170 167 181 198 205 198 192 190 192 199 205 204 208 213 214 216 217 214 211 209 209 212 213 217 224 236 251 263 270 278 282 280 280 276 255 241
203 212 230 242 245 249 240 216 216 230 233 230 225 225 232 229 216 217 230 232 241 252 263 262 167 91 83 133 172 183 189 186 175 173 170 173 175 170 172 178 171 168 178 186 185 174 164 168 167 155 154 158 173 189 192 189 186 186 190 198 202 200 203 209 216 217 214 210 208 206 205 208 213 218 224 234 247 254 259 265 269 272 270 255 236 223
202 204 213 226 237 246 252 251 245 245 243 241 236 232 235 233 222 215 223 230 235 240 253 259 208 126 146 163 166 182 192 187 177 172 154 146 155 153 150 159 165 166 179 182 163 151 148 150 152 147 149 157 165 174 178 180 185 191 196 199 198 197 200 206 213 214 209 207 207 208 208 212 217 220 223 232 241 245 250 256 262 267 257 239 227 226
221 217 219 220 233 242 246 258 268 271 267 254 247 247 247 243 230 225 231 242 239 225 225 241 216 138 172 174 167 178 183 182 183 183 169 158 152 145 139 152 160 150 146 139 125 129 138 137 142 143 152 160 162 167 175 185 197 201 198 194 189 189 195 200 201 201 202 205 206 207 207 209 213 215 216 224 232 237 243 248 251 253 245 230 223 227
223 223 238 236 238 237 231 243 258 270 298 295 269 252 248 251 244 238 252 270 265 242 237 248 87 126 166 171 181 179 161 160 171 170 175 166 155 151 147 154 156 133 123 119 113 117 121 127 138 145 158 168 169 172 179 191 202 204 201 195 186 186 192 195 194 192 191 194 197 200 202 204 210 215 216 221 229 231 231 236 243 245 244 235 230 232
225 210 220 230 248 248 231 239 255 272 318 321 301 278 261 255 249 247 256 260 260 257 256 256 120 138 163 157 167 169 163 170 170 157 169 167 155 157 157 155 147 127 122 121 121 126 130 137 147 152 160 168 173 175 177 185 192 196 200 192 180 185 193 192 195 196 190 187 186 192 200 204 210 220 222 220 223 226 223 223 234 243 247 249 246 245
225 213 214 223 235 241 230 229 227 277 350 344 328 308 291 278 264 257 247 227 230 236 243 255 188 165 158 154 157 157 164 176 173 159 168 173 166 162 156 149 136 127 129 132 134 135 138 148 156 162 166 170 177 178 175 179 181 186 195 187 173 183 193 189 195 197 191 185 180 184 194 196 203 218 225 220 224 237 240 235 239 247 249 254 254 252
210 221 222 221 227 223 208 212 215 218 317 355 348 326 311 313 294 266 254 244 247 234 214 210 180 160 144 150 164 157 158 166 165 168 178 182 175 162 153 152 142 134 136 138 139 138 140 148 154 159 163 169 181 180 172 174 172 172 180 179 176 185 190 193 199 193 186 190 187 196 203 198 200 212 221 227 238 252 258 259 261 258 253 254 253 250
212 225 221 219 230 230 221 223 228 235 247 287 346 351 335 326 326 314 278 257 260 258 202 160 158 154 144 154 166 160 162 167 168 177 180 174 170 164 158 155 146 146 154 154 153 154 152 150 149 154 159 164 178 182 176 181 177 172 176 175 178 188 189 190 195 185 187 198 199 213 219 211 208 215 225 240 246 249 249 251 258 260 261 265 267 266
216 224 216 218 232 229 225 231 237 250 254 250 261 342 357 345 339 348 344 244 234 218 172 159 158 155 150 162 169 164 169 176 176 180 177 161 150 147 154 161 156 159 171 171 167 168 165 158 152 155 165 173 185 193 188 183 181 185 189 181 182 198 199 194 189 180 188 203 210 220 228 225 220 219 228 243 247 251 252 251 256 259 260 266 271 275
221 232 216 211 227 226 217 221 234 251 258 242 231 242 321 9 8 352 7 107 152 158 153 160 168 163 154 166 177 176 179 184 183 186 189 181 159 142 150 171 175 173 178 178 174 174 176 173 164 155 151 150 159 176 176 172 177 184 192 191 190 203 209 202 196 192 197 208 217 226 232 236 234 226 231 244 251 258 261 259 259 257 254 258 263 264
215 236 221 208 224 230 211 208 220 229 251 247 233 232 242 265 23 360 339 57 148 161 159 165 171 168 169 182 189 189 192 197 193 189 190 193 189 178 179 194 198 197 197 196 195 194 192 190 188 181 172 162 155 158 158 161 178 183 185 189 186 188 202 203 199 202 206 207 211 218 225 235 245 245 249 257 259 261 265 264 264 264 261 260 259 258
212 218 213 214 223 224 209 198 198 206 230 252 240 236 238 235 249 318 289 189 151 170 171 170 171 174 185 194 196 197 199 204 205 198 190 189 196 203 207 210 212 213 214 213 213 213 207 200 198 198 196 193 189 186 181 180 185 184 185 193 187 178 190 201 198 201 206 204 206 214 221 229 241 248 255 263 264 264 267 266 266 268 266 264 261 258
242 222 219 223 220 217 199 165 174 219 222 178 199 233 232 217 202 211 208 170 150 182 189 185 182 191 203 208 206 203 201 203 205 203 196 189 192 204 211 212 212 215 218 221 222 223 219 209 204 202 203 205 208 208 204 200 195 188 187 193 191 184 189 196 190 189 199 203 209 221 230 235 243 249 255 263 268 270 272 273 273 273 272 272 271 269
219 225 245 255 236 221 182 166 178 219 189 159 157 158 189 202 200 196 188 161 119 121 185 193 184 187 209 215 214 212 205 200 196 193 193 191 190 199 208 211 213 213 218 227 231 231 229 223 215 209 206 207 209 208 208 208 205 201 196 190 185 179 181 192 195 196 201 206 210 222 236 244 251 256 260 263 266 270 272 274 277 277 277 277 278 279
196 229 253 255 247 214 175 189 197 152 147 162 173 167 180 207 216 219 216 204 177 146 153 173 161 99 82 120 166 195 202 204 205 202 204 207 208 211 217 223 228 230 232 235 239 240 241 238 229 219 214 215 215 213 212 211 209 208 201 191 186 178 174 191 199 199 204 213 218 226 239 249 253 256 258 259 261 264 267 269 273 276 278 281 282 283
252 250 234 214 229 250 226 215 202 158 135 127 149 177 188 191 198 210 215 216 220 215 207 212 226 241 321 96 116 146 176 197 216 217 213 212 210 210 214 220 229 237 239 239 242 245 244 240 234 226 223 224 223 223 222 216 210 204 195 192 193 193 196 204 206 203 210 223 233 240 245 251 252 252 253 255 256 258 260 263 265 267 270 275 280 283
281 269 214 197 222 237 242 251 247 236 167 120 142 175 181 181 185 188 177 175 211 227 229 237 248 247 242 239 219 197 200 204 212 217 214 211 209 209 212 219 227 232 233 235 240 246 245 238 229 225 227 228 228 231 235 234 228 223 219 217 217 216 218 219 218 217 226 239 251 257 257 256 255 254 254 253 253 254 256 258 261 263 266 270 274 279
255 271 215 202 219 211 212 246 270 297 116 141 196 205 193 187 180 176 178 168 183 225 239 242 249 237 220 220 216 215 228 232 228 225 218 212 213 216 218 223 227 225 222 226 230 232 237 235 229 228 232 234 237 238 240 242 238 236 239 241 243 246 246 247 250 253 253 252 255 259 259 257 256 255 255 254 256 260 262 264 266 270 272 274 275 277
236 279 256 236 238 235 237 236 214 157 157 184 235 244 215 197 181 175 183 154 154 210 305 30 222 207 185 189 198 198 215 229 229 230 227 221 220 221 219 218 219 219 218 223 227 227 229 229 229 231 232 234 238 240 242 246 248 248 249 250 252 256 259 262 263 262 261 260 258 258 259 260 261 262 262 262 263 265 267 269 271 272 273 274 275 276
332 320 287 260 255 257 262 253 148 136 178 191 235 257 203 190 183 177 137 124 129 132 105 110 134 152 153 159 171 173 180 194 206 217 224 224 218 215 217 215 216 219 218 222 227 228 230 232 234 237 239 239 244 248 250 254 257 258 260 261 263 266 268 267 265 264 267 269 268 268 268 269 270 269 268 268 268 268 269 270 271 271 270 271 272 274
334 336 328 323 304 276 264 211 126 115 173 165 92 111 153 151 148 142 123 120 136 153 149 145 153 159 163 168 173 179 185 187 193 205 216 220 207 201 214 215 214 219 221 226 233 236 242 249 252 257 261 259 259 260 261 261 261 262 265 266 268 270 271 269 268 268 270 271 272 273 273 273 273 272 271 270 269 268 268 267 268 267 267 268 270 271
337 338 351 351 331 310 316 133 123 87 127 148 117 130 147 133 125 135 138 140 156 166 166 171 177 178 186 193 193 196 197 197 207 220 232 241 228 212 221 223 223 227 229 233 239 244 251 257 260 265 267 267 268 268 267 266 266 266 267 267 269 270 270 270 271 272 272 273 273 273 272 271 271 270 270 269 268 267 266 266 266 267 267 267 268 269
344 343 7 4 347 347 25 73 98 76 73 131 126 137 149 142 141 153 162 161 160 163 170 181 187 192 205 213 213 213 216 223 233 240 245 250 243 238 241 243 246 250 251 252 256 259 263 265 267 268 269 271 273 273 273 274 274 274 273 273 273 273 273 274 275 275 276 276 275 273 271 269 268 267 267 267 267 267 268 267 268 268 268 268 267 266
18 39 51 19 26 60 74 99 118 116 96 99 107 123 149 164 169 175 183 182 178 182 185 185 186 184 191 208 217 221 224 230 236 239 241 245 250 256 261 263 267 268 269 270 272 274 276 278 278 279 279 280 279 279 279 280 280 281 280 279 279 278 278 277 276 276 275 274 273 273 271 270 269 268 267 267 267 268 268 268 268 268 268 267 267 266
40 46 46 39 68 73 78 112 141 160 147 130 135 152 175 188 190 194 201 201 199 201 198 194 199 199 196 204 215 217 217 222 228 236 245 251 257 264 269 272 276 277 279 282 283 285 286 287 288 289 288 288 287 287 287 286 285 285 284 282 282 280 279 278 278 277 276 275 274 273 272 271 270 269 268 268 267 267 268 268 268 269 268 268 267 266
30 43 54 69 86 73 92 136 164 212 212 173 172 188 196 199 204 210 210 207 209 213 213 219 231 225 212 211 215 210 211 221 232 243 252 256 260 266 271 276 280 283 286 288 290 290 290 290 292 293 293 292 293 292 291 290 289 287 286 285 284 283 282 281 281 280 279 278 277 276 275 274 272 270 269 269 268 267 267 267 267 267 266 266 265 264
39 55 55 14 2 118 140 161 171 294 348 151 177 198 201 203 209 212 206 204 211 224 237 250 254 236 213 216 227 228 227 236 246 252 258 262 266 271 276 280 284 287 289 292 294 295 296 297 299 300 299 299 299 298 296 295 293 291 289 288 286 285 284 283 283 283 282 281 280 279 278 276 275 274 272 270 268 267 266 265 265 264 263 262 261 259
42 50 36 352 131 136 147 157 134 100 102 124 186 254 208 185 188 198 204 208 218 230 243 249 246 235 227 230 242 247 247 249 255 261 267 271 274 278 281 283 286 288 291 294 296 298 300 301 301 302 302 302 302 301 300 299 297 295 294 291 289 288 287 287 287 286 285 284 284 282 281 280 278 277 275 273 271 270 267 266 265 263 262 260 258 257
59 75 69 64 115 154 174 155 130 121 161 169 156 338 72 132 142 180 199 209 220 228 233 233 234 238 241 241 249 257 260 260 260 261 267 272 275 278 279 281 284 287 290 293 295 296 298 300 302 304 305 305 306 305 304 304 303 301 298 295 293 292 291 291 291 291 290 290 288 286 285 283 281 279 279 277 276 274 272 270 268 266 264 262 258 256
229 111 99 99 118 153 175 162 136 153 198 165 129 88 106 101 98 173 216 241 251 248 243 240 240 242 244 243 246 252 259 262 262 262 265 269 271 272 273 275 278 281 284 288 291 295 301 306 308 308 309 310 310 311 311 312 311 308 303 299 297 296 296 296 295 294 293 292 291 290 289 287 285 284 282 281 279 277 276 275 273 271 269 267 263 258
Height
3078 3078 3078 3078 3078 3079 3080 3081 3080 3080 3079 3079 3078 3076 3076 3077 3076 3076 3075 3075 3077 3080 3083 3085 3087 3089 3090 3091 3092 3093 3095 3097 3099 3099 3101 3102 3099 3097 3098 3101 3104 3104 3104 3106 3106 3106 3107 3108 3109 3111 3113 3114 3114 3114 3114 3115 3114 3114 3115 3118 3121 3123 3123 3124 3126 3128 3130 3134 3137 3139 3141 3142 3143 3144 3145 3145 3145 3145 3145 3145 3145 3145 3144 3143 3142 3141
3077 3076 3076 3076 3077 3078 3079 3080 3079 3079 3079 3079 3077 3074 3073 3073 3074 3074 3074 3075 3076 3078 3081 3083 3086 3087 3088 3090 3090 3091 3092 3094 3097 3098 3099 3101 3100 3099 3096 3096 3102 3103 3103 3103 3102 3102 3106 3108 3109 3110 3112 3112 3112 3112 3113 3113 3114 3115 3116 3117 3121 3124 3125 3126 3128 3130 3132 3134 3137 3139 3141 3142 3143 3144 3144 3145 3145 3145 3146 3145 3145 3144 3143 3142 3142 3141
3075 3074 3074 3075 3076 3077 3077 3078 3078 3078 3078 3078 3077 3075 3071 3070 3072 3072 3072 3074 3075 3077 3079 3081 3084 3085 3087 3088 3089 3090 3089 3090 3093 3095 3097 3098 3099 3100 3096 3092 3097 3102 3101 3100 3099 3103 3108 3107 3106 3108 3110 3110 3110 3111 3112 3113 3113 3114 3115 3118 3121 3124 3126 3127 3129 3131 3133 3135 3137 3139 3140 3141 3142 3143 3144 3144 3145 3145 3146 3145 3145 3144 3143 3142 3142 3141
3073 3072 3072 3074 3075 3076 3076 3076 3077 3076 3077 3077 3076 3075 3072 3070 3070 3070 3071 3073 3075 3077 3080 3081 3082 3084 3085 3086 3087 3089 3089 3089 3090 3092 3095 3096 3096 3099 3095 3091 3096 3099 3098 3097 3100 3106 3108 3104 3104 3107 3109 3109 3109 3110 3112 3112 3112 3112 3113 3117 3121 3124 3125 3127 3129 3132 3134 3136 3137 3138 3140 3141 3142 3142 3143 3144 3145 3145 3145 3146 3145 3145 3144 3143 3142 3141
3070 3070 3071 3072 3073 3074 3075 3075 3076 3076 3076 3076 3075 3075 3073 3071 3071 3071 3072 3074 3076 3077 3080 3082 3083 3082 3083 3083 3084 3087 3087 3088 3089 3090 3093 3094 3096 3096 3093 3091 3094 3094 3094 3098 3103 3106 3105 3102 3102 3105 3107 3107 3109 3110 3111 3110 3110 3112 3115 3119 3122 3124 3125 3128 3130 3132 3134 3135 3137 3138 3139 3140 3141 3142 3143 3143 3144 3145 3145 3146 3146 3145 3145 3144 3142 3141
3069 3069 3070 3070 3070 3072 3074 3074 3075 3076 3075 3075 3074 3074 3073 3072 3071 3072 3073 3074 3077 3078 3079 3083 3082 3080 3080 3081 3083 3084 3085 3086 3087 3089 3091 3092 3095 3093 3090 3091 3091 3091 3094 3100 3104 3103 3102 3100 3099 3102 3105 3106 3108 3109 3109 3110 3113 3116 3118 3120 3122 3123 3125 3129 3131 3133 3134 3135 3136 3137 3138 3139 3141 3141 3142 3143 3144 3145 3145 3146 3146 3146 3145 3144 3143 3141
3068 3068 3069 3069 3069 3071 3073 3073 3074 3074 3075 3073 3072 3074 3074 3072 3072 3072 3073 3074 3076 3077 3079 3082 3081 3079 3078 3079 3081 3082 3083 3084 3085 3088 3089 3091 3094 3090 3088 3090 3089 3090 3095 3099 3102 3102 3101 3098 3095 3099 3104 3106 3107 3108 3109 3112 3116 3119 3119 3121 3122 3123 3126 3129 3132 3133 3134 3135 3136 3137 3138 3139 3140 3141 3142 3143 3144 3144 3145 3145 3145 3145 3145 3144 3142 3141
3066 3067 3068 3069 3069 3070 3071 3071 3072 3073 3073 3071 3071 3073 3073 3073 3073 3072 3072 3073 3075 3077 3078 3079 3080 3078 3076 3075 3077 3079 3081 3082 3084 3086 3087 3090 3092 3086 3085 3088 3089 3092 3095 3098 3101 3102 3101 3097 3092 3097 3104 3106 3107 3109 3111 3113 3117 3118 3119 3121 3122 3124 3127 3129 3131 3132 3133 3134 3136 3137 3137 3139 3140 3141 3142 3143 3143 3144 3144 3145 3145 3145 3144 3143 3142 3141
3064 3065 3066 3068 3068 3069 3069 3069 3070 3071 3071 3069 3070 3071 3071 3072 3073 3072 3072 3073 3075 3076 3075 3076 3078 3077 3074 3073 3074 3076 3079 3079 3081 3084 3085 3088 3089 3083 3083 3086 3089 3093 3096 3098 3101 3101 3098 3093 3093 3098 3104 3107 3108 3109 3112 3113 3115 3118 3119 3122 3124 3125 3127 3129 3129 3130 3132 3133 3136 3136 3137 3138 3140 3141 3142 3142 3143 3143 3144 3144 3144 3144 3144 3143 3142 3141
3064 3064 3065 3066 3067 3067 3067 3068 3068 3069 3069 3069 3069 3069 3069 3070 3071 3072 3073 3073 3074 3074 3074 3074 3076 3075 3073 3071 3073 3074 3076 3077 3080 3082 3083 3086 3086 3083 3082 3085 3088 3092 3096 3098 3098 3095 3090 3090 3096 3100 3102 3106 3108 3110 3113 3114 3116 3118 3120 3122 3124 3124 3126 3127 3128 3129 3131 3133 3134 3136 3137 3138 3140 3140 3141 3142 3142 3143 3143 3143 3143 3143 3143 3142 3142 3141
3062 3063 3063 3064 3065 3065 3066 3066 3066 3067 3067 3068 3069 3069 3068 3069 3069 3071 3071 3072 3073 3072 3072 3073 3074 3075 3073 3070 3071 3073 3074 3075 3078 3080 3082 3084 3083 3083 3084 3083 3084 3090 3095 3095 3091 3089 3089 3092 3099 3101 3103 3108 3110 3112 3114 3115 3117 3119 3120 3122 3123 3123 3124 3126 3128 3128 3130 3132 3134 3136 3137 3138 3139 3140 3141 3142 3142 3142 3142 3143 3142 3142 3142 3142 3141 3141
3061 3061 3062 3062 3063 3063 3065 3065 3064 3065 3066 3067 3068 3068 3068 3068 3068 3068 3069 3071 3072 3071 3071 3071 3072 3073 3072 3069 3069 3071 3073 3076 3078 3079 3081 3080 3080 3082 3084 3083 3083 3089 3094 3091 3086 3088 3092 3096 3100 3102 3105 3109 3111 3114 3115 3115 3118 3119 3120 3121 3121 3122 3122 3124 3126 3127 3130 3132 3134 3135 3136 3138 3139 3139 3141 3141 3142 3142 3142 3142 3141 3141 3141 3140 3140 3140
3059 3060 3060 3061 3061 3062 3063 3064 3063 3065 3065 3066 3067 3067 3067 3066 3067 3067 3067 3068 3068 3068 3068 3069 3069 3069 3069 3068 3069 3071 3073 3075 3077 3078 3078 3078 3079 3081 3083 3083 3084 3088 3092 3089 3087 3090 3094 3098 3101 3102 3106 3108 3110 3113 3114 3115 3117 3118 3119 3120 3120 3121 3121 3123 3125 3127 3129 3131 3133 3135 3136 3138 3138 3139 3140 3141 3141 3141 3141 3140 3140 3140 3140 3139 3139 3139
3056 3058 3058 3059 3059 3060 3061 3061 3061 3062 3064 3064 3064 3065 3065 3065 3067 3067 3065 3065 3065 3065 3066 3067 3067 3067 3067 3068 3070 3071 3073 3074 3075 3076 3076 3078 3080 3081 3081 3083 3085 3086 3088 3088 3088 3091 3095 3099 3101 3101 3104 3106 3107 3110 3112 3113 3114 3115 3116 3117 3118 3119 3121 3123 3125 3126 3128 3129 3132 3134 3136 3137 3137 3138 3139 3140 3141 3140 3140 3139 3139 3139 3139 3139 3138 3138
3053 3054 3055 3056 3057 3058 3059 3059 3059 3060 3061 3062 3063 3063 3063 3063 3066 3066 3064 3064 3064 3063 3064 3066 3066 3066 3068 3070 3071 3071 3072 3073 3074 3075 3075 3077 3080 3080 3080 3082 3083 3082 3085 3088 3090 3092 3096 3100 3100 3100 3102 3104 3104 3106 3108 3109 3110 3111 3113 3114 3116 3117 3118 3121 3123 3125 3126 3128 3130 3132 3134 3135 3136 3137 3138 3139 3140 3140 3139 3139 3138 3138 3138 3138 3138 3137
3051 3050 3051 3053 3055 3056 3057 3057 3058 3059 3059 3060 3061 3062 3061 3062 3064 3064 3063 3064 3065 3064 3064 3065 3066 3066 3068 3070 3071 3070 3071 3072 3073 3074 3075 3076 3077 3078 3079 3080 3079 3078 3082 3087 3090 3093 3096 3099 3099 3098 3100 3102 3103 3104 3106 3107 3109 3110 3111 3113 3114 3115 3117 3119 3121 3123 3125 3126 3128 3130 3131 3133 3134 3135 3137 3138 3138 3138 3138 3138 3138 3138 3138 3138 3137 3137
3050 3049 3050 3052 3053 3055 3056 3057 3057 3058 3058 3058 3059 3059 3059 3061 3062 3063 3063 3063 3065 3066 3065 3064 3065 3067 3068 3069 3070 3070 3071 3072 3074 3074 3074 3075 3076 3077 3078 3077 3076 3077 3081 3085 3088 3092 3096 3097 3097 3096 3098 3100 3102 3103 3105 3106 3108 3110 3112 3113 3113 3114 3115 3117 3119 3121 3123 3125 3126 3127 3129 3131 3132 3133 3135 3136 3137 3137 3137 3137 3137 3137 3137 3137 3137 3136
3049 3049 3049 3050 3051 3053 3055 3056 3057 3057 3058 3058 3058 3058 3058 3060 3060 3062 3063 3063 3065 3065 3062 3061 3064 3067 3068 3067 3067 3069 3071 3073 3073 3072 3072 3074 3077 3078 3077 3075 3076 3078 3081 3083 3087 3091 3094 3094 3095 3096 3098 3099 3099 3100 3103 3105 3108 3110 3112 3113 3113 3114 3114 3116 3117 3119 3121 3122 3124 3125 3127 3129 3130 3132 3133 3134 3135 3136 3136 3136 3136 3136 3136 3136 3136 3136
3049 3050 3049 3049 3050 3051 3054 3055 3055 3055 3057 3057 3057 3057 3058 3059 3059 3060 3061 3063 3066 3065 3062 3059 3060 3064 3066 3065 3065 3067 3069 3070 3071 3070 3071 3073 3077 3078 3077 3076 3077 3078 3080 3082 3085 3088 3090 3090 3091 3094 3096 3097 3099 3099 3101 3104 3107 3109 3111 3112 3112 3113 3114 3115 3116 3117 3119 3120 3121 3123 3125 3127 3129 3130 3131 3132 3133 3134 3134 3135 3135 3135 3135 3135 3135 3135
3049 3050 3050 3049 3049 3050 3052 3053 3053 3054 3055 3056 3057 3058 3058 3059 3060 3060 3060 3061 3061 3062 3062 3059 3058 3062 3065 3065 3066 3066 3066 3068 3070 3070 3070 3072 3075 3077 3076 3075 3076 3077 3079 3081 3083 3085 3086 3087 3089 3091 3092 3094 3097 3098 3099 3103 3106 3107 3108 3109 3110 3111 3112 3112 3114 3115 3117 3118 3120 3121 3123 3125 3127 3128 3130 3131 3132 3132 3133 3133 3134 3134 3134 3134 3134 3135
3049 3049 3050 3050 3049 3049 3049 3050 3052 3053 3054 3055 3056 3057 3057 3058 3059 3060 3060 3060 3059 3059 3060 3058 3060 3066 3066 3065 3066 3065 3065 3067 3069 3069 3070 3072 3075 3076 3076 3076 3077 3078 3079 3080 3082 3084 3085 3086 3087 3088 3090 3092 3095 3097 3098 3102 3104 3104 3105 3106 3107 3108 3109 3110 3111 3113 3115 3116 3118 3120 3122 3124 3126 3127 3128 3129 3130 3131 3131 3132 3132 3133 3133 3133 3134 3134
3047 3047 3049 3050 3049 3048 3048 3049 3052 3053 3053 3053 3054 3055 3055 3056 3057 3059 3059 3059 3059 3058 3058 3059 3063 3067 3067 3066 3067 3067 3067 3067 3068 3069 3070 3072 3075 3076 3076 3078 3078 3079 3079 3080 3082 3083 3083 3084 3085 3087 3089 3091 3093 3095 3096 3099 3101 3102 3104 3105 3105 3106 3107 3109 3110 3111 3113 3115 3117 3119 3121 3123 3125 3126 3127 3128 3128 3129 3130 3130 3131 3132 3132 3133 3133 3134
3044 3046 3047 3049 3049 3048 3047 3048 3050 3051 3052 3052 3051 3053 3054 3054 3055 3057 3057 3058 3059 3058 3058 3060 3063 3065 3066 3067 3068 3068 3068 3069 3069 3071 3071 3072 3074 3074 3074 3076 3078 3078 3079 3081 3082 3082 3083 3083 3084 3086 3087 3089 3092 3093 3095 3098 3100 3102 3102 3102 3103 3104 3106 3107 3108 3109 3111 3113 3115 3117 3119 3121 3123 3124 3125 3126 3127 3127 3128 3129 3130 3131 3132 3132 3133 3133
3044 3046 3046 3047 3049 3049 3048 3048 3049 3050 3051 3051 3051 3052 3053 3052 3053 3055 3056 3057 3058 3057 3058 3059 3062 3065 3066 3067 3068 3068 3069 3069 3070 3072 3073 3073 3073 3073 3073 3075 3076 3075 3077 3080 3080 3081 3082 3084 3085 3086 3087 3089 3091 3093 3096 3098 3099 3099 3099 3099 3100 3102 3103 3103 3104 3106 3108 3110 3113 3115 3117 3119 3120 3122 3123 3124 3125 3126 3127 3128 3129 3130 3130 3131 3131 3132
3044 3046 3046 3047 3048 3049 3049 3049 3050 3050 3049 3050 3050 3051 3052 3052 3052 3053 3054 3055 3055 3056 3057 3059 3061 3065 3066 3066 3067 3068 3069 3070 3071 3073 3074 3074 3074 3073 3074 3074 3073 3073 3075 3078 3079 3081 3082 3083 3085 3087 3088 3090 3092 3094 3096 3097 3097 3096 3096 3097 3099 3100 3100 3100 3102 3103 3105 3107 3109 3112 3113 3115 3117 3119 3120 3121 3122 3124 3125 3127 3128 3129 3129 3130 3130 3131
3044 3045 3046 3046 3047 3049 3050 3050 3051 3051 3050 3050 3050 3051 3052 3052 3052 3052 3054 3055 3056 3056 3058 3059 3061 3065 3067 3067 3066 3067 3069 3069 3070 3072 3073 3073 3073 3073 3074 3074 3073 3073 3075 3078 3079 3081 3082 3083 3085 3087 3089 3090 3092 3093 3095 3095 3095 3095 3096 3097 3098 3099 3100 3102 3103 3104 3103 3104 3106 3108 3111 3113 3115 3116 3117 3118 3120 3122 3123 3125 3126 3128 3128 3129 3129 3129
3044 3044 3045 3046 3047 3048 3050 3051 3052 3053 3053 3053 3051 3050 3050 3050 3051 3052 3053 3055 3056 3057 3058 3059 3061 3064 3067 3067 3066 3067 3068 3068 3069 3071 3072 3073 3073 3073 3073 3074 3075 3075 3077 3078 3080 3081 3082 3083 3085 3087 3089 3090 3092 3093 3093 3094 3094 3094 3095 3097 3098 3099 3101 3102 3103 3104 3103 3102 3103 3105 3107 3108 3111 3113 3114 3117 3119 3121 3123 3124 3125 3126 3127 3127 3128 3128
3043 3043 3044 3045 3047 3048 3049 3051 3052 3053 3053 3053 3052 3050 3049 3049 3049 3050 3051 3053 3055 3056 3058 3059 3061 3063 3065 3066 3066 3067 3069 3069 3070 3071 3073 3075 3075 3073 3073 3075 3076 3077 3078 3080 3081 3082 3083 3084 3085 3087 3089 3090 3092 3091 3091 3091 3092 3093 3094 3095 3097 3098 3100 3101 3102 3101 3101 3101 3102 3103 3104 3105 3107 3110 3112 3115 3118 3121 3122 3123 3124 3124 3125 3125 3126 3126
3042 3043 3043 3044 3045 3047 3049 3050 3051 3052 3053 3053 3053 3052 3051 3050 3049 3049 3050 3052 3054 3054 3055 3058 3060 3062 3064 3065 3066 3067 3068 3070 3070 3071 3074 3076 3074 3071 3072 3074 3076 3077 3078 3079 3080 3082 3083 3084 3086 3087 3088 3089 3091 3091 3090 3091 3092 3092 3092 3093 3095 3097 3097 3098 3099 3099 3100 3101 3102 3104 3104 3105 3107 3109 3112 3115 3118 3119 3121 3122 3122 3122 3123 3123 3124 3124
3041 3041 3042 3043 3044 3045 3047 3049 3050 3050 3051 3053 3054 3054 3054 3052 3051 3051 3050 3051 3053 3053 3055 3057 3059 3061 3063 3064 3065 3066 3067 3068 3069 3071 3074 3075 3074 3071 3071 3073 3075 3076 3077 3078 3079 3081 3083 3084 3085 3086 3088 3089 3090 3090 3091 3092 3093 3093 3092 3092 3094 3095 3095 3096 3097 3099 3101 3103 3103 3104 3105 3106 3109 3111 3113 3115 3116 3117 3119 3119 3120 3121 3121 3122 3122 3123
3040 3040 3041 3042 3043 3044 3046 3047 3048 3049 3050 3051 3053 3054 3055 3055 3054 3053 3053 3053 3053 3053 3054 3056 3058 3060 3061 3063 3063 3064 3065 3065 3067 3069 3071 3073 3074 3072 3071 3072 3073 3074 3075 3077 3078 3079 3080 3081 3083 3084 3086 3088 3090 3091 3092 3093 3093 3093 3092 3093 3095 3096 3097 3098 3100 3100 3102 3104 3105 3106 3106 3107 3109 3110 3112 3113 3114 3115 3116 3117 3118 3119 3119 3120 3121 3122
3039 3040 3041 3042 3043 3043 3044 3046 3047 3048 3049 3049 3050 3052 3054 3055 3055 3055 3055 3056 3055 3054 3054 3055 3056 3057 3058 3059 3060 3061 3062 3063 3065 3067 3069 3070 3071 3071 3071 3072 3072 3072 3073 3074 3075 3076 3077 3078 3080 3081 3083 3085 3087 3089 3091 3091 3091 3092 3093 3094 3096 3098 3099 3100 3101 3102 3103 3104 3105 3106 3107 3108 3108 3109 3110 3111 3112 3113 3114 3114 3115 3116 3117 3118 3119 3119
3038 3039 3040 3042 3042 3042 3043 3045 3046 3047 3048 3048 3049 3050 3052 3054 3055 3056 3056 3057 3056 3055 3055 3055 3055 3055 3056 3057 3059 3059 3060 3061 3063 3065 3066 3067 3068 3068 3069 3070 3070 3071 3072 3073 3075 3076 3077 3078 3079 3079 3080 3081 3083 3084 3086 3087 3089 3091 3093 3094 3095 3097 3099 3100 3101 3102 3103 3104 3105 3106 3107 3107 3107 3108 3109 3110 3111 3112 3112 3113 3113 3114 3114 3115 3116 3117
3039 3039 3040 3041 3041 3041 3042 3043 3045 3047 3048 3048 3049 3050 3051 3053 3054 3055 3056 3057 3057 3056 3056 3055 3055 3055 3056 3057 3058 3058 3059 3060 3061 3063 3064 3066 3066 3067 3068 3069 3069 3070 3071 3073 3074 3075 3077 3078 3078 3079 3080 3081 3082 3082 3083 3085 3087 3088 3090 3092 3094 3096 3097 3098 3100 3101 3102 3103 3104 3105 3105 3106 3107 3107 3108 3108 3109 3110 3110 3110 3111 3111 3112 3113 3113 3114
3039 3040 3041 3041 3041 3041 3042 3044 3045 3046 3046 3047 3049 3050 3050 3052 3053 3054 3056 3057 3057 3057 3057 3056 3056 3057 3057 3057 3058 3059 3060 3061 3063 3064 3065 3067 3068 3068 3069 3070 3071 3071 3072 3074 3075 3076 3077 3078 3078 3079 3080 3081 3082 3082 3083 3084 3085 3085 3087 3090 3092 3094 3096 3096 3097 3099 3100 3101 3102 3103 3104 3104 3105 3106 3107 3107 3108 3108 3108 3108 3108 3109 3109 3110 3111 3112
3039 3040 3040 3041 3041 3041 3042 3043 3045 3045 3045 3047 3049 3049 3050 3051 3052 3054 3055 3056 3057 3058 3057 3056 3057 3059 3058 3058 3058 3059 3061 3063 3064 3066 3067 3068 3069 3070 3070 3071 3072 3073 3074 3075 3076 3077 3078 3079 3080 3081 3082 3083 3084 3084 3085 3085 3084 3084 3085 3086 3087 3090 3092 3093 3094 3096 3098 3098 3100 3101 3102 3103 3104 3105 3105 3106 3107 3107 3107 3106 3106 3107 3107 3107 3107 3108
3037 3038 3039 3040 3041 3042 3042 3042 3043 3044 3046 3047 3048 3049 3050 3050 3051 3052 3054 3055 3056 3057 3057 3057 3058 3059 3059 3059 3059 3060 3062 3063 3065 3066 3066 3067 3068 3069 3070 3071 3072 3073 3074 3075 3076 3077 3078 3079 3080 3081 3083 3083 3084 3085 3087 3087 3087 3087 3088 3087 3087 3087 3087 3088 3091 3093 3095 3097 3099 3100 3101 3102 3102 3103 3104 3104 3105 3105 3105 3105 3105 3105 3105 3104 3104 3104
3037 3037 3038 3039 3041 3042 3042 3043 3044 3045 3046 3047 3047 3048 3049 3049 3050 3051 3053 3054 3054 3055 3056 3057 3057 3059 3059 3059 3060 3061 3062 3063 3064 3065 3066 3067 3068 3069 3070 3071 3072 3073 3074 3074 3076 3077 3078 3079 3080 3081 3082 3083 3084 3085 3087 3088 3089 3090 3090 3090 3090 3090 3089 3091 3092 3094 3095 3097 3099 3099 3100 3100 3100 3101 3102 3102 3102 3102 3103 3103 3103 3104 3103 3103 3102 3102
3037 3036 3037 3039 3040 3041 3042 3044 3045 3046 3047 3047 3047 3047 3047 3048 3049 3051 3053 3054 3054 3054 3055 3056 3056 3057 3059 3059 3060 3060 3061 3061 3062 3063 3065 3067 3068 3069 3070 3071 3071 3072 3073 3074 3075 3076 3077 3078 3079 3080 3081 3082 3083 3084 3085 3087 3088 3089 3090 3090 3091 3091 3092 3093 3094 3094 3095 3096 3097 3097 3098 3098 3098 3098 3099 3100 3100 3100 3100 3100 3100 3101 3101 3100 3100 3100
3036 3037 3037 3038 3039 3040 3042 3043 3044 3045 3046 3046 3046 3047 3047 3047 3049 3051 3053 3054 3055 3055 3055 3055 3055 3057 3058 3058 3059 3059 3060 3060 3060 3061 3063 3065 3066 3067 3069 3070 3070 3071 3072 3073 3074 3075 3076 3077 3078 3079 3080 3081 3082 3083 3084 3085 3086 3087 3088 3089 3089 3089 3090 3091 3092 3092 3093 3094 3094 3095 3095 3095 3095 3096 3096 3097 3097 3096 3096 3096 3096 3097 3096 3096 3096 3096
3036 3037 3037 3037 3038 3040 3041 3043 3043 3044 3045 3045 3045 3046 3046 3048 3050 3052 3053 3055 3056 3056 3055 3054 3055 3056 3057 3057 3058 3059 3059 3059 3059 3060 3061 3062 3064 3066 3067 3068 3069 3070 3071 3072 3073 3074 3075 3076 3077 3077 3078 3079 3080 3081 3082 3083 3084 3084 3085 3086 3086 3086 3087 3087 3088 3089 3089 3090 3091 3091 3092 3092 3092 3092 3092 3093 3093 3092 3092 3092 3092 3092 3092 3091 3091 3092
3037 3037 3037 3037 3038 3039 3040 3042 3044 3045 3045 3046 3046 3046 3046 3048 3051 3052 3053 3055 3056 3056 3055 3054 3054 3055 3056 3056 3057 3058 3058 3059 3059 3060 3060 3061 3063 3065 3066 3067 3069 3070 3071 3072 3072 3073 3073 3074 3075 3076 3076 3077 3078 3079 3080 3081 3081 3082 3082 3083 3083 3083 3083 3084 3084 3085 3086 3086 3087 3087 3088 3088 3088 3087 3087 3087 3087 3087 3087 3087 3087 3087 3087 3087 3086 3087
3037 3038 3038 3038 3038 3039 3039 3041 3044 3046 3046 3045 3046 3046 3047 3049 3050 3051 3053 3053 3054 3054 3055 3055 3055 3056 3056 3057 3058 3058 3058 3058 3058 3059 3060 3061 3063 3064 3066 3067 3068 3069 3071 3071 3072 3073 3073 3074 3074 3075 3075 3076 3076 3077 3078 3078 3078 3079 3080 3080 3079 3080 3080 3080 3080 3081 3081 3082 3082 3083 3083 3082 3082 3082 3081 3081 3081 3081 3081 3081 3082 3082 3082 3082 3082 3082
3038 3038 3040 3039 3039 3040 3041 3042 3044 3045 3045 3045 3046 3046 3047 3048 3049 3049 3050 3051 3052 3053 3053 3054 3054 3055 3056 3057 3057 3058 3058 3058 3058 3059 3060 3061 3063 3064 3065 3066 3067 3068 3069 3070 3071 3072 3072 3073 3073 3073 3074 3074 3074 3074 3075 3075 3075 3075 3076 3076 3075 3076 3076 3076 3076 3076 3076 3076 3076 3076 3076 3076 3076 3075 3075 3075 3075 3075 3075 3075 3076 3076 3076 3077 3077 3077
3039 3039 3040 3040 3040 3041 3042 3043 3044 3044 3045 3046 3046 3046 3047 3048 3048 3048 3049 3050 3050 3051 3052 3053 3053 3054 3055 3056 3056 3057 3057 3058 3058 3059 3060 3061 3062 3063 3064 3064 3065 3066 3067 3068 3069 3069 3069 3069 3070 3070 3070 3070 3070 3071 3071 3071 3071 3070 3070 3070 3070 3070 3070 3070 3070 3070 3069 3069 3069 3069 3069 3069 3069 3069 3068 3068 3068 3068 3068 3069 3069 3069 3070 3071 3071 3072
3040 3040 3041 3041 3040 3041 3042 3043 3043 3044 3044 3045 3045 3045 3046 3046 3047 3048 3049 3049 3049 3050 3051 3052 3053 3054 3054 3054 3055 3056 3057 3057 3058 3058 3059 3060 3061 3061 3062 3062 3063 3063 3063 3064 3066 3066 3066 3066 3066 3066 3066 3066 3066 3066 3066 3066 3066 3065 3065 3065 3064 3064 3064 3063 3063 3063 3062 3062 3062 3062 3062 3062 3062 3062 3061 3061 3061 3061 3061 3061 3062 3062 3063 3063 3064 3064
3040 3041 3042 3042 3041 3042 3043 3043 3043 3043 3043 3044 3044 3045 3045 3045 3046 3046 3048 3048 3049 3049 3050 3052 3052 3053 3053 3053 3054 3055 3056 3057 3057 3058 3058 3059 3059 3060 3060 3060 3060 3060 3060 3061 3062 3063 3062 3062 3062 3062 3062 3061 3061 3061 3061 3061 3060 3060 3059 3059 3058 3058 3057 3057 3056 3056 3056 3055 3055 3054 3054 3054 3054 3053 3053 3054 3054 3054 3054 3054 3054 3054 3055 3055 3056 3057
3041 3042 3042 3042 3042 3042 3043 3043 3043 3043 3043 3043 3044 3044 3045 3045 3046 3047 3048 3048 3049 3049 3050 3050 3051 3052 3052 3052 3053 3054 3055 3056 3056 3057 3057 3057 3057 3058 3058 3058 3058 3057 3057 3057 3058 3058 3058 3058 3058 3057 3057 3057 3056 3056 3056 3055 3055 3054 3054 3053 3053 3052 3052 3051 3051 3050 3049 3049 3048 3048 3047 3046 3046 3046 3046 3046 3046 3046 3046 3046 3046 3047 3047 3048 3049 3049
3042 3042 3042 3042 3042 3042 3043 3043 3043 3043 3044 3043 3043 3043 3044 3045 3046 3047 3048 3048 3049 3049 3049 3050 3050 3051 3051 3052 3052 3053 3054 3054 3055 3055 3055 3055 3055 3056 3056 3055 3055 3055 3054 3054 3054 3054 3055 3055 3054 3054 3053 3053 3052 3052 3051 3051 3050 3050 3049 3048 3047 3047 3046 3045 3045 3044 3043 3043 3042 3041 3040 3040 3039 3039 3038 3038 3038 3038 3039 3039 3039 3039 3040 3041 3042 3041
3041 3042 3042 3043 3042 3043 3043 3043 3043 3044 3044 3044 3043 3043 3044 3045 3046 3047 3047 3048 3048 3048 3049 3049 3050 3050 3051 3051 3051 3051 3052 3052 3053 3053 3053 3052 3053 3053 3053 3053 3053 3053 3053 3053 3052 3052 3052 3052 3052 3052 3051 3050 3049 3049 3048 3047 3046 3046 3045 3043 3042 3041 3041 3040 3039 3039 3038 3037 3037 3036 3035 3034 3034 3033 3033 3032 3032 3032 3032 3032 3033 3033 3033 3034 3035 3035
3041 3041 3042 3043 3042 3042 3042 3043 3043 3044 3044 3044 3044 3044 3045 3046 3046 3046 3046 3046 3046 3047 3047 3048 3048 3049 3049 3049 3050 3050 3050 3050 3051 3051 3051 3051 3051 3051 3051 3052 3052 3052 3051 3051 3051 3050 3050 3050 3050 3049 3049 3048 3047 3046 3046 3045 3044 3042 3041 3040 3038 3037 3037 3036 3035 3034 3034 3033 3032 3032 3031 3030 3030 3029 3029 3028 3028 3027 3027 3027 3027 3027 3027 3027 3028 3028